Aérodrome :
LOGIN :

S'inscrire | Disclaimer

   EN    FR    IT 

 










Légende :    VFR   VFR Marginal   IFR   IFR Intensif   IFR Très Intensif
Visi : 
Plafond : 
>= 8 km
>= 3000ft
5 à 8 km
1000 à 3000 ft
1500m à 5 km
500 à 1000 ft
800 à 1500m
200 à 500 ft
< 800m
< 200 ft
Symboles :   Orages  Brouillard  Fortes neiges  Fortes précipitations  Vent > 20 kt
SIGMETs :   Divers  Orages  Givrage  Turbulence  Onde Orograph.  Cendres Volcan.







- Altitude de l'aérodrome : 129 ft
- Code IATA : ZPQ


ETHE - Rheine Bentlage

DERNIER METAR :
  • 161620Z AUTO 12003KT //// // ////// 22/11 Q1020 ///

METARs EXPIRÉS :
  • 161520Z AUTO VRB03KT //// // ////// 23/12 Q1020 ///
  • 161420Z AUTO 05005KT //// // ////// 22/11 Q1021 ///

TAF AMD TAF ETHE
Valide du 16 à 14h jusqu'au 16 à 23h UTC


161315Z 1614/1623 VRB03KT 9999 NSW FEW030 BKN240 CANCEL 1330
Pas de NOTAMs connus pour ce terrain.



MET'MAP, la Météo Aéronautique d'un coup d'oeil ! - Copyright ORBIFLY Décembre 2007 - Disclaimer

ORBIFLY MET'MAP TEAM :

Programmation & Développement : Alexandra Zaïnal
Conception & Développement : Baudouin d'Aumeries
Co-Programmation & Développement : Marc-Olivier Méhu
Soutien technique & logistique : Manuel Goepfert

Contact : metmap@orbifly.com




SOURCES & CREDITS :

   NOAA